Weather History for KLAF - February, 2014

Change the Weather History Date:

Sunday, February 2, 2014

  Actual Average Record
Temperature  
Mean Temperature 23 °F 28 °F  
Max Temperature 30 °F 35 °F 51 °F (1973)
Min Temperature 16 °F 20 °F -11 °F (1965)
Degree Days  
Heating Degree Days 42 37  
Month to date heating degree days 75 75  
Since 1 July heating degree days 3743 3443  
Cooling Degree Days 0 0  
Month to date cooling degree days 0 0  
Year to date cooling degree days 0 0  
Moisture  
Dew Point 20 °F    
Average Humidity 80    
Maximum Humidity 92    
Minimum Humidity 67    
Precipitation  
Precipitation T in 0.05 in 0.46 in (1983)
Month to date precipitation 1.07 0.11  
Year to date precipitation 1.98 1.97  
Sea Level Pressure  
Sea Level Pressure 30.17 in    
Wind  
Wind Speed 8 mph (NNW)    
Max Wind Speed 15 mph    
Max Gust Speed 20 mph    
Visibility 7 miles    
Events Snow    
T = Trace of Precipitation, MM = Missing Value Source: NWS Daily Summary

Daily Weather History Graph

Daily Weather History Graph

Search for Another Location

Airport or City:

Trip Planner

Search our weather history database for the weather conditions in past years. The results will help you decide how hot, cold, wet, or windy it might be!

Date:

Astronomy

Feb. 02, 2014 Rise Set
Actual Time 7:56 AM EST 6:07 PM EST
Civil Twilight 7:27 AM EST 6:36 PM EST
Nautical Twilight 6:54 AM EST 7:08 PM EST
Astronomical Twilight 6:22 AM EST 7:40 PM EST
Moon 9:21 AM EST (2/2) 9:51 PM EST (2/2)
Length of Visible Light 11h 08m
Length of Day
10h 11m
Waxing Crescent, 11% of the Moon is Illuminated
Feb 2
Waxing Crescent
Feb 6
First Quarter
Feb 14
Full
Feb 22
Last Quarter
Mar 1
New

Hourly Weather History & Observations

Time (EST) Temp. Windchill Dew Point Humidity Pressure Visibility Wind Dir Wind Speed Gust Speed Precip Events Conditions
12:33 AM 30.0 °F 22.4 °F 28.0 °F 92% 30.03 in 9.0 mi NNW 8.1 mph - N/A   Overcast
12:54 AM 30.0 °F 22.4 °F 27.0 °F 88% 30.06 in 10.0 mi North 8.1 mph - N/A   Overcast
1:01 AM 30.0 °F 21.1 °F 27.0 °F 88% 30.04 in 10.0 mi North 10.4 mph - N/A   Overcast
1:54 AM 28.9 °F 21.9 °F 26.1 °F 89% 30.07 in 3.0 mi North 6.9 mph - 0.00 in Snow Light Snow
2:07 AM 28.9 °F 21.9 °F 26.1 °F 89% 30.04 in 8.0 mi North 6.9 mph - 0.00 in Snow Light Snow
2:21 AM 28.9 °F 19.8 °F 26.1 °F 89% 30.06 in 9.0 mi NNW 10.4 mph - 0.00 in Snow Light Snow
2:54 AM 28.9 °F 21.1 °F 26.1 °F 89% 30.07 in 10.0 mi North 8.1 mph - 0.00 in   Overcast
3:54 AM 28.0 °F 18.6 °F 24.1 °F 85% 30.09 in 10.0 mi North 10.4 mph - 0.00 in   Overcast
4:54 AM 27.0 °F 17.3 °F 23.0 °F 85% 30.12 in 9.0 mi North 10.4 mph - N/A   Overcast
5:03 AM 27.0 °F 16.7 °F 23.0 °F 85% 30.10 in 3.0 mi North 11.5 mph - 0.00 in Snow Light Snow
5:12 AM 27.0 °F 18.7 °F 23.0 °F 85% 30.10 in 2.0 mi North 8.1 mph - 0.00 in Snow Light Snow
5:28 AM 26.1 °F 16.2 °F 23.0 °F 88% 30.10 in 3.0 mi NNW 10.4 mph - 0.00 in Snow Light Snow
5:41 AM 26.1 °F 17.6 °F 23.0 °F 88% 30.09 in 2.0 mi North 8.1 mph - 0.00 in Snow Light Snow
5:45 AM 26.1 °F 16.8 °F 23.0 °F 88% 30.09 in 1.8 mi North 9.2 mph - 0.00 in Snow Light Snow
5:54 AM 26.1 °F 16.8 °F 23.0 °F 88% 30.12 in 1.5 mi North 9.2 mph - 0.00 in Snow Light Snow
6:08 AM 26.1 °F 17.6 °F 23.0 °F 88% 30.10 in 3.0 mi North 8.1 mph - 0.00 in Snow Light Snow
6:20 AM 26.1 °F 17.6 °F 23.0 °F 88% 30.11 in 5.0 mi North 8.1 mph - 0.00 in Snow Light Snow
6:35 AM 26.1 °F 18.4 °F 23.0 °F 88% 30.12 in 6.0 mi NNW 6.9 mph - 0.00 in   Mostly Cloudy
6:42 AM 25.0 °F 17.1 °F 23.0 °F 92% 30.12 in 7.0 mi North 6.9 mph - 0.00 in   Scattered Clouds
6:54 AM 26.1 °F 18.4 °F 23.0 °F 88% 30.15 in 7.0 mi NNW 6.9 mph - 0.00 in   Mostly Cloudy
7:22 AM 25.0 °F 14.8 °F 21.9 °F 88% 30.13 in 6.0 mi NNW 10.4 mph - N/A   Overcast
7:54 AM 24.1 °F 14.4 °F 21.0 °F 88% 30.17 in 6.0 mi NNW 9.2 mph - N/A   Mostly Cloudy
8:54 AM 23.0 °F 11.7 °F 19.9 °F 88% 30.20 in 4.0 mi NW 11.5 mph - N/A   Mostly Cloudy
9:31 AM 21.9 °F 10.4 °F 18.0 °F 85% 30.21 in 6.0 mi NW 11.5 mph - N/A   Scattered Clouds
9:54 AM 21.9 °F 10.4 °F 18.0 °F 85% 30.24 in 7.0 mi NW 11.5 mph - N/A   Clear
10:54 AM 21.0 °F 9.3 °F 17.1 °F 85% 30.26 in 7.0 mi NNW 11.5 mph - N/A   Clear
11:54 AM 21.9 °F 12.5 °F 17.1 °F 82% 30.27 in 6.0 mi NW 8.1 mph - N/A   Haze
12:54 PM 21.9 °F 11.0 °F 16.0 °F 78% 30.25 in 6.0 mi NNW 10.4 mph - N/A   Haze
1:54 PM 21.9 °F 12.5 °F 16.0 °F 78% 30.24 in 7.0 mi NW 8.1 mph - N/A   Partly Cloudy
2:54 PM 23.0 °F 14.7 °F 15.1 °F 72% 30.27 in 9.0 mi NNW 6.9 mph - N/A   Partly Cloudy
3:54 PM 21.9 °F 11.0 °F 14.0 °F 72% 30.26 in 10.0 mi NNW 10.4 mph - N/A   Clear
4:54 PM 21.0 °F 12.4 °F 14.0 °F 74% 30.29 in 8.0 mi NW 6.9 mph - N/A   Clear
5:54 PM 21.0 °F 10.6 °F 14.0 °F 74% 30.28 in 9.0 mi NNW 9.2 mph - N/A   Clear
6:54 PM 19.9 °F 12.1 °F 12.9 °F 74% 30.30 in 10.0 mi NNW 5.8 mph - N/A   Clear
7:54 PM 19.0 °F 7.5 °F 10.9 °F 71% 30.28 in 10.0 mi North 10.4 mph - N/A   Clear
8:54 PM 18.0 °F 8.7 °F 10.9 °F 74% 30.29 in 10.0 mi NNE 6.9 mph - N/A   Clear
9:54 PM 18.0 °F 12.7 °F 10.9 °F 74% 30.30 in 10.0 mi North 3.5 mph - N/A   Clear
10:54 PM 17.1 °F - 12.0 °F 81% 30.34 in 10.0 mi Calm Calm - N/A   Clear
11:54 PM 16.0 °F 7.4 °F 10.9 °F 81% 30.28 in 10.0 mi North 5.8 mph - N/A   Clear